Location: Newark
(34.1333°N, 7.9667°W)
Time: 14:08:57
(UTC+00:00)

S-56A Canister/Altair - Pass Details

Date: 06 December 2021
Orbit: 634 x 2499 km, 38.9° (Epoch: 25 January)

Event Time Altitude Azimuth Distance (km) Brightness Sun altitude
Rises 21:18:44 0° 215° (SW) 6,089 12.4 -48.2°
Reaches altitude 10° 21:23:14 10° 210° (SSW) 4,952 11.8 -49.1°
Enters shadow 21:28:52 26° 195° (SSW) 3,598 10.8 -50.3°
